Other Public Products
Issued by NWS Grand Forks, ND

Home | Current Version | Previous Version | Graphics & Text | Print | Product List | Glossary On
Versions: 1 2 3 4 5 6 7 8 9 10 11 12 13 14 15 16 17 18 19 20 21 22 23 24 25 26 27 28 29 30 31 32 33 34 35 36 37 38 39 40 41 42 43 44 45 46 47 48 49 50
000
FPUS83 KFGF 230110
OPUFGF
PRAIRIE TO PINES WEATHER ROUNDUP
NATIONAL WEATHER SERVICE EASTERN NORTH DAKOTA/GRAND FORKS ND
800 PM CDT WED OCT 22 2014

 **SATELLITE DATA USED TO AUGMENT SKY COVER AT AUTOMATED STATIONS**
 *****  WEATHER ACROSS EASTERN NORTH DAKOTA  *****

CITY           SKY/WX    TMP DP  RH WIND       PRES   REMARKS
GRAND FORKS    CLOUDY    54  52  93 S7        29.84R
GRAND FORKS AF CLOUDY    53  53  99 SW6       29.84S
GRAND CITY NWS   N/A     54 N/A N/A SW5         N/A
BUXTON         NOT AVBL
DEVILS LAKE    MOCLDY    54  45  71 SW7       29.80R
FARGO          CLOUDY    56  53  90 SW14      29.89R
WAHPETON ARPT  CLOUDY    55  52  88 SW9       29.93R
$$

 *****  WEATHER ACROSS CENTRAL AND WESTERN NORTH DAKOTA  *****

CITY           SKY/WX    TMP DP  RH WIND       PRES   REMARKS
JAMESTOWN      PTCLDY    52  48  86 S9        29.86R
BISMARCK       CLEAR     55  37  50 SW6       29.89R
MINOT          CLOUDY    57  42  57 SW8       29.81R
MINOT AFB      CLOUDY    55  45  67 SW7       29.80R
GARRISON         N/A     53  40  61 W6        29.85R
WILLISTON      CLEAR     53  34  48 W8        29.84R
DICKINSON      CLEAR     46  32  58 W9        29.89R
HETTINGER      CLEAR     43  29  57 CALM      29.95R
$$

 *****  OTHER OBSERVATIONS NORTHEAST NORTH DAKOTA  *****

CITY           SKY/WX    TMP DP  RH WIND       PRES   REMARKS
WALHALLA         N/A     54  54 100 S7        29.78S
LANGDON        FAIR      48  46  93 S10       29.78S
CAVALIER       FAIR      54  52  94 S9        29.79S
GRAFTON        FAIR      54  54 100 S8        29.81S
CANDO          CLOUDY    55  45  67 W8        29.80R
FORT TOTTEN    NOT AVBL
ROLLA          MOCLDY    54  45  71 W14       29.78S
RUGBY          MOCLDY    55  45  67 W10       29.81R
 ***** THE ABOVE OBSERVATIONS ARE NON NWS ARE NOT QUALITY
        CONTROLLED AND MAY MIS-REPORT RAIN FOR SNOW...
$$

 *****  OTHER OBSERVATIONS SOUTHEAST NORTH DAKOTA *****

CITY           SKY/WX    TMP DP  RH WIND       PRES   REMARKS
COOPERSTOWN    NOT AVBL
VALLEY CITY    FAIR      50  50 100 S9        29.88S
OAKES            N/A     54  54 100 S10       29.91S
GWINNER        CLOUDY    54  54 100 SW7       29.92S
SHEYENNE NWR     N/A     55  53  92 SW6       29.95S
BUFFALO        NOT AVBL
WYNDMERE         N/A     55  55 100 W9          N/A
 ***** THE ABOVE OBSERVATIONS ARE NON NWS ARE NOT QUALITY
       CONTROLLED AND MAY MIS-REPORT RAIN FOR SNOW...
$$

  *****  WEATHER ACROSS NORTHERN MINNESOTA  *****

CITY           SKY/WX    TMP DP  RH WIND       PRES   REMARKS
FLAG ISLAND    CLOUDY    54  46  76 S21       29.83R
WARROAD        CLOUDY    59  48  67 S12       29.84S
ROSEAU         CLOUDY    61  48  63 S14       29.82S
HALLOCK        CLOUDY    55  54  94 S9        29.81S
THF RVR FALLS  CLOUDY    54  52  94 S7        29.86R
HALSTAD          N/A     55  54  95 SW6         N/A
FOSSTON        CLOUDY    54  48  82 S12       29.89R
BAUDETTE       CLOUDY    57  43  59 S12G21    29.88S
WASKISH        CLOUDY    55  45  67 SE10G16   29.90S
CROOKSTON      CLOUDY    55  54  94 SW8       29.86S
$$
  *****  WEATHER ACROSS CENTRAL AND WEST MINNESOTA  *****

CITY           SKY/WX    TMP DP  RH WIND       PRES   REMARKS
BEMIDJI        CLOUDY    55  43  63 SE14      29.90S
PARK RAPIDS    CLOUDY    57  43  59 SE16      29.92R
WADENA         RAIN      55  46  71 S12       29.93R
DETROIT LAKES  DRIZZLE   55  50  82 S7        29.92R
MOORHEAD       CLOUDY    55  55 100 SW6       29.91R
FERGUS FALLS   CLOUDY    55  54  94 SW3       29.92S
ELBOW LAKE     CLOUDY    55  54  95 SE10      29.91F
MORRIS MN      CLOUDY    57  55  94 S8        29.92S FOG
STAPLES        CLOUDY    55  43  62 SE9G18    29.95R
WHEATON        CLOUDY    54  52  94 SW8       29.94R
$$
  *****  WEATHER ELSEWHERE ACROSS MINNESOTA  *****

CITY           SKY/WX    TMP DP  RH WIND       PRES   REMARKS
DULUTH         MOCLDY    50  38  63 SE8       30.05R
INTRNTL FALLS  CLOUDY    56  41  57 S8G17     29.94S
ELY            NOT AVBL
CLOQUET        MOCLDY    48  39  71 SE6       30.04S
BRAINERD       CLOUDY    54  42  64 S14       29.99R
HIBBING        MOCLDY    52  38  58 S7        30.02R
ALEXANDRIA     LGT RAIN  56  50  80 S14       29.95S
SAINT CLOUD    CLOUDY    58  43  57 SE12      30.00R
MINNEAPOLIS    CLOUDY    57  40  52 SE14G23   30.05R
$$

  *****  WEATHER ACROSS SOUTH DAKOTA  *****

CITY           SKY/WX    TMP DP  RH WIND       PRES   REMARKS
SIOUX FALLS    CLOUDY    57  55  93 W7        30.00R
BROOKINGS      NOT AVBL
WATERTOWN      CLOUDY    54  52  93 W12       29.96R
HURON          MOCLDY    53  51  93 SW5       29.98R
SISSETON         N/A     57  54  89 W12       29.92R
ABERDEEN       MOCLDY    51  49  92 S6        29.94S
MITCHELL       MOCLDY    55  53  93 SW5       30.00R
PIERRE         CLEAR     59  40  49 S6        29.96R
MOBRIDGE       CLEAR     54  38  54 CALM      29.91R
RAPID CITY     CLEAR     47  32  56 NE8       30.02R
$$

  *****  SOME WEATHER IN NEARBY STATES *****

CITY           SKY/WX    TMP DP  RH WIND       PRES   REMARKS
GLASGOW MT     CLEAR     54  32  43 SW7       29.86R
GREAT FALLS MT CLEAR     53  32  44 SW14      29.88R
CHEYENNE WY    PTCLDY    52  28  39 SW7       30.15R
SCOTTSBLUFF NE CLEAR     55  26  32 VRB6      30.06R
OMAHA NE       LGT RAIN  64  61  90 CALM      30.07R FOG
DES MOINES IA  MOCLDY    60  46  59 SE13      30.12S
DAVENPORT IA   CLEAR     46  34  62 SE6       30.23R
CHICAGO IL     CLEAR     45  37  73 E9        30.26F
EAU CLAIRE WI  CLOUDY    56  36  47 S9        30.13S
LA CROSSE WI   MOCLDY    54  38  54 SE8       30.17R
$$

  *****  SOME NATIONAL WEATHER *****

CITY           SKY/WX    TMP DP  RH WIND       PRES   REMARKS
LA GUARDIA NY  RAIN      53  49  86 N18G31    29.76F
RALEIGH NC     PTCLDY    55  42  61 W5        30.01R
ATLANTA GA     CLEAR     57  42  57 NW12      30.10R
NEW ORLEANS LA CLEAR     70  54  56 N3        30.04R
OKLAHOMA CITY  RAIN      64  61  90 W8        30.12R FOG
ALBUQUERQUE NM PTCLDY    70  38  31 CALM      30.14R
SALT LAKE CITY MOCLDY    57  35  43 NW7       30.16R
LOS ANGELES CA PTCLDY    70  64  81 W13       29.90R
BOISE ID       CLOUDY    60  32  34 SE10      30.01S
SEATTLE WA     LGT RAIN  56  52  86 SE12G21   29.60F
$$

*** WEATHER ACROSS MANITOBA...SASKATCHEWAN AND ONTARIO ***
                ***ONTARIO***

CITY           SKY/WX    TMP DP  RH WIND       PRES   REMARKS
GERALDTON      PTCLDY    36  34  93 S6        30.15F
THUNDER BAY    NOT AVBL
SIOUX LOOKOUT  PTCLDY    54  39  58 S12G22    29.92R
TORONTO        MOCLDY    46  39  76 N15       30.24R
BIG TROUT LK   CLOUDY    52  41  66 S8        29.82R
PICKLE LAKE    MOCLDY    52  34  50 S14G22    29.90F
DRYDEN         PTCLDY    55  41  58 S17G26    29.90R
KENORA         CLOUDY    57  45  62 S17G25    29.84S
$$
                *** MANITOBA***

CITY           SKY/WX    TMP DP  RH WIND       PRES   REMARKS
BRANDON        PTCLDY    50  45  81 W12       29.72R
DAUPHIN        CLEAR     54  48  82 W12       29.64R
ISLAND LAKE    CLOUDY    55  45  67 S9        29.70S
PILOT MOUND      N/A     52  43  71 SW8         N/A
THE PAS        PTCLDY    46  45  93 N5        29.65R
THOMPSON       LGT RAIN  46  45  93 NE5       29.70S
WINNIPEG       LGT RAIN  54  52  94 S13       29.76R
LYNN LAKE      CLOUDY    41  39  93 NE8       29.76R FOG
CHURCHILL      LGT RAIN  37  37 100 N14       29.84R
$$
                ***SASKATCHEWAN***

CITY           SKY/WX    TMP DP  RH WIND       PRES   REMARKS
ESTEVAN        MOCLDY    50  45  81 SW6       29.80R
KINDERSLEY     NOT AVBL
LLOYDMINSTER   MOCLDY    48  34  57 SE9       29.69F
PRINCE ALBERT  MOCLDY    45  45 100 W7        29.71R
REGINA         MOCLDY    48  45  87 NW3       29.78R
YORKTON        MOCLDY    50  45  81 W10       29.69S



USA.gov is the U.S. government's official web portal to all federal, state and local government web resources and services.